Voltar ao catálogo

STARLINK-33873

AtivoComunicaçõesVLEO
NORAD 63655·PAYLOAD·🇺🇸 United States

Lançado Apr 25, 2025 de Cape Canaveral Space Force Station

Loading…

Próximas Passagens (próximas 24 horas)

TLE

AtualizadoSource: CelesTrak SupGP

Época: Sep 14, 2026, 23:07 UTC

1 63655C 25083X   26257.96368056 -.00013565  00000+0 -49138-3 0  2574
2 63655  43.0036  16.4831 0001652 272.7065  13.6602 15.27580440    14

Acompanhe STARLINK-33873 em tempo real com AllMySat

Download on the App Store